Details From OPRN - Chaklala
To OPLA - Allama Iqbal Intl
Flight Number -
Tags Generated
Created
Modified
Stats Distance 142 nm / 263 km
Max Altitude 0 ft / 0 m
Waypoints 2
Social Downloads 2
Likes 0
Share VATSIM

Download

Looking for another format? Having issues loading an existing format? Contact us
Advertisement - Login to hide

Notes

Generated

Route

OPRN OPLA

ID Type Via Altitude Latitude Longitude Leg Dist Tot Dist Heading (true) Name
O OPRN APT - 0 ft / 0 m 33.62378˚ 73.08317˚ - 0 nm - -
O OPLA APT - 0 ft / 0 m 31.53392˚ 74.40283˚ 142 nm 142 nm 152° / 152° -

Altitude Profile

Advertisement - Login to hide

OPRN

Details ICAO OPRN (ISB)
Name CHAKLALA
Region Pakistan
Timezone Asia/Karachi (UTC+5.0)
Stats Elevation 1,668 ft / 508 m (AMSL)
Location 33.616768° 73.098812°
Runways 1
Magnetic Variation 2.614° E

METAR

OPRN 160100Z 00000KT 2000 BR NSC 05/04 Q1023.3/30.22

Decode

TAF

Not found

Departure Runways

ID Width Length Bearing (true) Bearing (mag) Surface Threshold Offset Overrun Length
12 150 ft / 46 m 10,795 ft / 3,290 m 118.28° 115.67° Asphalt 885 ft / 270 m 680 ft / 207 m
30 150 ft / 46 m 10,795 ft / 3,290 m 298.30° 295.69° Asphalt 885 ft / 270 m 740 ft / 226 m

OPLA

Details ICAO OPLA (LHE)
Name ALLAMA IQBAL INTL
Region Pakistan
Timezone Asia/Karachi (UTC+5.0)
Stats Elevation 712 ft / 217 m (AMSL)
Location 31.521562° 74.403591°
Runways 2
Magnetic Variation 2.011° E

METAR

OPLA 160125Z 29005KT 4000 FU NSC 06/04 Q1022/A30.14

Decode

TAF

Not found

Destination Runways

ID Width Length Bearing (true) Bearing (mag) Surface Threshold Offset Overrun Length
18L 151 ft / 46 m 11,014 ft / 3,357 m 180.88° 178.87° Concrete 0 ft / 0 m 410 ft / 125 m
18R 151 ft / 46 m 9,023 ft / 2,750 m 180.87° 178.86° Asphalt 0 ft / 0 m 915 ft / 279 m
36L 151 ft / 46 m 9,023 ft / 2,750 m 0.87° 358.86° Asphalt 0 ft / 0 m 0 ft / 0 m
36R 151 ft / 46 m 11,014 ft / 3,357 m 0.88° 358.87° Concrete 0 ft / 0 m 420 ft / 128 m

Approach Navaids

Runway Type Ident Frequency Range Bearing (true) Bearing (mag) Slope Elevation
36R Localiser ILA 109.90 MHz 18 nm / 33 km 0.79° 358.78° - 707 ft / 215 m (AMSL)
36R Glidescope ILA 109.90 MHz 10 nm / 19 km 0.88° 358.86° 3.00° 707 ft / 215 m (AMSL)
36R DME ILA 109.90 MHz 18 nm / 33 km - - - 712 ft / 217 m (AMSL)

Popular Alternatives